Time,TemperatureF,DewpointF,PressureIn,WindDirection,WindDirectionDegrees,WindSpeedMPH,WindSpeedGustMPH,Humidity,HourlyPrecipIn,Conditions,Clouds,dailyrainin,SolarRadiationWatts/m^2,SoftwareType,DateUTC
2013-01-25 00:01:00,43.8,37.7,29.47,NE,40,4.0,5.0,79,0.00,,,0.00,0,Wunderground v.1.15,2013-01-24 23:01:00,
2013-01-25 00:06:00,43.7,37.6,29.47,NNW,330,4.0,5.0,79,0.00,,,0.00,0,Wunderground v.1.15,2013-01-24 23:06:00,
2013-01-25 00:16:00,43.6,37.5,29.46,North,5,4.0,4.0,79,0.00,,,0.00,0,Wunderground v.1.15,2013-01-24 23:16:00,
2013-01-25 00:21:00,43.4,37.6,29.46,NNE,27,3.0,5.0,80,0.00,,,0.00,0,Wunderground v.1.15,2013-01-24 23:21:00,
2013-01-25 00:31:00,43.3,37.5,29.46,ENE,72,4.0,4.0,80,0.00,,,0.00,0,Wunderground v.1.15,2013-01-24 23:31:00,
2013-01-25 00:36:00,43.2,37.4,29.46,NE,40,3.0,4.0,80,0.00,,,0.00,0,Wunderground v.1.15,2013-01-24 23:36:00,
2013-01-25 00:46:00,43.1,37.3,29.45,NNE,24,3.0,4.0,80,0.00,,,0.00,0,Wunderground v.1.15,2013-01-24 23:46:00,
2013-01-25 00:56:00,43.0,37.6,29.45,NE,51,4.0,5.0,81,0.00,,,0.00,0,Wunderground v.1.15,2013-01-24 23:56:00,
2013-01-25 01:01:00,43.0,37.6,29.44,NNE,22,4.0,6.0,81,0.00,,,0.00,0,Wunderground v.1.15,2013-01-25 00:01:00,
2013-01-25 01:11:00,43.0,37.6,29.44,NE,44,5.0,5.0,81,0.00,,,0.00,0,Wunderground v.1.15,2013-01-25 00:11:00,
2013-01-25 01:16:00,42.9,37.5,29.44,NNE,28,5.0,5.0,81,0.00,,,0.00,0,Wunderground v.1.15,2013-01-25 00:16:00,
2013-01-25 01:26:00,42.9,37.5,29.44,ENE,76,5.0,8.0,81,0.00,,,0.00,0,Wunderground v.1.15,2013-01-25 00:26:00,
2013-01-25 01:31:00,42.9,37.5,29.44,NNW,348,5.0,5.0,81,0.00,,,0.00,0,Wunderground v.1.15,2013-01-25 00:31:00,
2013-01-25 01:41:00,42.7,37.6,29.44,North,5,3.0,4.0,82,0.00,,,0.00,0,Wunderground v.1.15,2013-01-25 00:41:00,
2013-01-25 01:46:00,42.7,37.6,29.43,NNE,29,4.0,4.0,82,0.00,,,0.00,0,Wunderground v.1.15,2013-01-25 00:46:00,
2013-01-25 01:56:00,42.6,37.5,29.43,NNE,24,3.0,5.0,82,0.00,,,0.00,0,Wunderground v.1.15,2013-01-25 00:56:00,
2013-01-25 02:01:00,42.6,37.5,29.44,NE,42,3.0,6.0,82,0.00,,,0.00,0,Wunderground v.1.15,2013-01-25 01:01:00,
2013-01-25 02:11:00,42.5,37.4,29.43,North,355,3.0,3.0,82,0.00,,,0.00,0,Wunderground v.1.15,2013-01-25 01:11:00,
2013-01-25 02:16:00,42.5,37.4,29.44,NE,50,3.0,4.0,82,0.00,,,0.00,0,Wunderground v.1.15,2013-01-25 01:16:00,
2013-01-25 02:26:00,42.3,37.5,29.43,North,11,3.0,4.0,83,0.00,,,0.00,0,Wunderground v.1.15,2013-01-25 01:26:00,
2013-01-25 02:36:00,42.1,37.3,29.44,North,5,3.0,5.0,83,0.00,,,0.00,0,Wunderground v.1.15,2013-01-25 01:36:00,
2013-01-25 02:41:00,42.1,37.3,29.44,NNE,13,4.0,4.0,83,0.00,,,0.00,0,Wunderground v.1.15,2013-01-25 01:41:00,
2013-01-25 02:51:00,42.1,37.3,29.44,NE,38,3.0,3.0,83,0.00,,,0.00,0,Wunderground v.1.15,2013-01-25 01:51:00,
2013-01-25 03:01:00,42.1,37.6,29.44,NE,51,2.0,4.0,84,0.00,,,0.00,0,Wunderground v.1.15,2013-01-25 02:01:00,
2013-01-25 03:06:00,42.1,37.6,29.44,NE,54,3.0,4.0,84,0.00,,,0.00,0,Wunderground v.1.15,2013-01-25 02:06:00,
2013-01-25 03:11:00,42.0,37.5,29.44,NE,41,3.0,3.0,84,0.00,,,0.00,0,Wunderground v.1.15,2013-01-25 02:11:00,
2013-01-25 03:21:00,41.9,37.4,29.44,NE,50,2.0,2.0,84,0.00,,,0.00,0,Wunderground v.1.15,2013-01-25 02:21:00,
2013-01-25 03:26:00,41.7,37.2,29.44,NNE,20,2.0,2.0,84,0.00,,,0.00,0,Wunderground v.1.15,2013-01-25 02:26:00,
2013-01-25 03:36:00,41.3,37.1,29.44,North,360,2.0,3.0,85,0.00,,,0.00,0,Wunderground v.1.15,2013-01-25 02:36:00,
2013-01-25 03:46:00,41.3,37.1,29.44,NE,38,1.0,2.0,85,0.00,,,0.00,0,Wunderground v.1.15,2013-01-25 02:46:00,
2013-01-25 03:51:00,41.3,37.4,29.44,ENE,57,1.0,1.0,86,0.00,,,0.00,0,Wunderground v.1.15,2013-01-25 02:51:00,
2013-01-25 04:01:00,41.2,37.3,29.45,NE,41,2.0,3.0,86,0.00,,,0.00,0,Wunderground v.1.15,2013-01-25 03:01:00,
2013-01-25 04:11:00,41.0,37.1,29.44,NNE,22,3.0,4.0,86,0.00,,,0.00,0,Wunderground v.1.15,2013-01-25 03:11:00,
2013-01-25 04:16:00,40.8,36.9,29.44,NNE,26,2.0,4.0,86,0.00,,,0.00,0,Wunderground v.1.15,2013-01-25 03:16:00,
2013-01-25 04:26:00,40.6,37.0,29.44,ENE,58,2.0,4.0,87,0.00,,,0.00,0,Wunderground v.1.15,2013-01-25 03:26:00,
2013-01-25 04:31:00,40.7,37.1,29.44,NE,45,2.0,3.0,87,0.00,,,0.00,0,Wunderground v.1.15,2013-01-25 03:31:00,
2013-01-25 04:41:00,40.7,37.1,29.44,NE,49,4.0,4.0,87,0.00,,,0.00,0,Wunderground v.1.15,2013-01-25 03:41:00,
2013-01-25 04:46:00,40.7,37.1,29.44,ENE,58,4.0,4.0,87,0.00,,,0.00,0,Wunderground v.1.15,2013-01-25 03:46:00,
2013-01-25 04:56:00,40.7,37.1,29.44,NE,44,4.0,6.0,87,0.00,,,0.00,0,Wunderground v.1.15,2013-01-25 03:56:00,
2013-01-25 05:06:00,40.7,37.1,29.44,NE,49,6.0,8.0,87,0.00,,,0.00,0,Wunderground v.1.15,2013-01-25 04:06:00,
2013-01-25 05:11:00,40.7,37.1,29.44,ENE,57,6.0,7.0,87,0.00,,,0.00,0,Wunderground v.1.15,2013-01-25 04:11:00,
2013-01-25 05:16:00,40.6,37.0,29.45,NE,46,6.0,7.0,87,0.00,,,0.00,0,Wunderground v.1.15,2013-01-25 04:16:00,
2013-01-25 05:26:00,40.5,36.9,29.45,NE,36,4.0,5.0,87,0.00,,,0.00,0,Wunderground v.1.15,2013-01-25 04:26:00,
2013-01-25 05:36:00,40.4,36.8,29.45,ENE,78,6.0,6.0,87,0.00,,,0.00,0,Wunderground v.1.15,2013-01-25 04:36:00,
2013-01-25 05:41:00,40.3,36.7,29.45,ENE,58,6.0,7.0,87,0.00,,,0.00,0,Wunderground v.1.15,2013-01-25 04:41:00,
2013-01-25 05:51:00,40.3,36.7,29.46,ENE,71,4.0,7.0,87,0.00,,,0.00,0,Wunderground v.1.15,2013-01-25 04:51:00,
2013-01-25 06:01:00,40.2,36.6,29.47,ENE,76,5.0,5.0,87,0.00,,,0.00,0,Wunderground v.1.15,2013-01-25 05:01:00,
2013-01-25 06:06:00,40.1,36.5,29.47,ENE,63,6.0,6.0,87,0.00,,,0.00,0,Wunderground v.1.15,2013-01-25 05:06:00,
2013-01-25 06:11:00,39.9,36.6,29.47,NE,54,6.0,7.0,88,0.00,,,0.00,0,Wunderground v.1.15,2013-01-25 05:11:00,
2013-01-25 06:16:00,39.8,36.5,29.47,ENE,63,6.0,7.0,88,0.00,,,0.00,0,Wunderground v.1.15,2013-01-25 05:16:00,
2013-01-25 06:21:00,39.8,36.5,29.47,NE,55,7.0,8.0,88,0.00,,,0.00,0,Wunderground v.1.15,2013-01-25 05:21:00,
2013-01-25 06:26:00,39.8,36.5,29.47,NE,49,7.0,8.0,88,0.00,,,0.00,0,Wunderground v.1.15,2013-01-25 05:26:00,
2013-01-25 06:31:00,39.9,36.6,29.48,ENE,66,6.0,6.0,88,0.00,,,0.00,0,Wunderground v.1.15,2013-01-25 05:31:00,
2013-01-25 06:41:00,39.9,36.6,29.48,NE,46,6.0,8.0,88,0.00,,,0.00,0,Wunderground v.1.15,2013-01-25 05:41:00,
2013-01-25 06:46:00,40.0,36.7,29.48,NE,38,7.0,8.0,88,0.00,,,0.00,0,Wunderground v.1.15,2013-01-25 05:46:00,
2013-01-25 06:56:00,40.1,36.8,29.48,NE,34,7.0,10.0,88,0.00,,,0.00,0,Wunderground v.1.15,2013-01-25 05:56:00,
2013-01-25 07:01:00,40.1,36.8,29.49,NE,56,7.0,7.0,88,0.00,,,0.00,0,Wunderground v.1.15,2013-01-25 06:01:00,
2013-01-25 07:06:00,40.1,36.8,29.49,ENE,76,7.0,7.0,88,0.00,,,0.00,0,Wunderground v.1.15,2013-01-25 06:06:00,
2013-01-25 07:16:00,40.1,36.8,29.49,ENE,78,6.0,7.0,88,0.00,,,0.00,0,Wunderground v.1.15,2013-01-25 06:16:00,
2013-01-25 07:26:00,40.1,36.8,29.49,NE,49,5.0,6.0,88,0.00,,,0.00,0,Wunderground v.1.15,2013-01-25 06:26:00,
2013-01-25 07:31:00,40.1,36.8,29.49,NNE,32,4.0,4.0,88,0.00,,,0.00,0,Wunderground v.1.15,2013-01-25 06:31:00,
2013-01-25 07:41:00,39.7,36.4,29.50,NE,43,2.0,2.0,88,0.00,,,0.00,7,Wunderground v.1.15,2013-01-25 06:41:00,
2013-01-25 07:51:00,40.0,36.7,29.50,NE,54,4.0,4.0,88,0.00,,,0.00,18,Wunderground v.1.15,2013-01-25 06:51:00,
2013-01-25 07:56:00,40.1,36.8,29.50,NE,46,4.0,4.0,88,0.00,,,0.00,25,Wunderground v.1.15,2013-01-25 06:56:00,
2013-01-25 08:06:00,40.3,37.0,29.50,ENE,57,4.0,5.0,88,0.00,,,0.00,39,Wunderground v.1.15,2013-01-25 07:06:00,
2013-01-25 08:11:00,40.5,37.2,29.50,ENE,68,4.0,4.0,88,0.00,,,0.00,44,Wunderground v.1.15,2013-01-25 07:11:00,
2013-01-25 08:21:00,40.8,37.5,29.50,ENE,57,5.0,5.0,88,0.00,,,0.00,54,Wunderground v.1.15,2013-01-25 07:21:00,
2013-01-25 08:26:00,41.0,37.4,29.50,NE,49,4.0,5.0,87,0.00,,,0.00,58,Wunderground v.1.15,2013-01-25 07:26:00,
2013-01-25 08:36:00,41.5,37.9,29.50,NE,41,3.0,4.0,87,0.00,,,0.00,72,Wunderground v.1.15,2013-01-25 07:36:00,
2013-01-25 08:46:00,41.9,38.0,29.51,NNE,13,2.0,4.0,86,0.00,,,0.00,98,Wunderground v.1.15,2013-01-25 07:46:00,
2013-01-25 08:56:00,42.4,38.5,29.51,NE,39,3.0,3.0,86,0.00,,,0.00,100,Wunderground v.1.15,2013-01-25 07:56:00,
2013-01-25 09:01:00,42.6,38.4,29.51,North,355,3.0,3.0,85,0.00,,,0.00,102,Wunderground v.1.15,2013-01-25 08:01:00,
2013-01-25 09:11:00,43.0,38.5,29.51,NNE,25,4.0,5.0,84,0.00,,,0.00,100,Wunderground v.1.15,2013-01-25 08:11:00,
2013-01-25 09:21:00,43.2,38.4,29.51,NNE,30,5.0,5.0,83,0.00,,,0.00,93,Wunderground v.1.15,2013-01-25 08:21:00,
2013-01-25 09:26:00,43.2,38.4,29.51,NNE,30,4.0,5.0,83,0.00,,,0.00,86,Wunderground v.1.15,2013-01-25 08:26:00,
2013-01-25 09:36:00,43.3,38.5,29.52,NE,51,4.0,4.0,83,0.00,,,0.00,84,Wunderground v.1.15,2013-01-25 08:36:00,
2013-01-25 09:41:00,43.4,38.6,29.52,ENE,59,4.0,4.0,83,0.00,,,0.00,70,Wunderground v.1.15,2013-01-25 08:41:00,
2013-01-25 09:51:00,43.6,38.5,29.52,ENE,57,3.0,3.0,82,0.00,,,0.00,97,Wunderground v.1.15,2013-01-25 08:51:00,
2013-01-25 09:56:00,43.6,38.5,29.52,NNE,25,3.0,4.0,82,0.00,,,0.00,91,Wunderground v.1.15,2013-01-25 08:56:00,
2013-01-25 10:06:00,44.3,38.8,29.52,ENE,57,5.0,8.0,81,0.00,,,0.00,325,Wunderground v.1.15,2013-01-25 09:06:00,
2013-01-25 10:16:00,45.5,39.4,29.52,ENE,69,5.0,5.0,79,0.00,,,0.00,336,Wunderground v.1.15,2013-01-25 09:16:00,
2013-01-25 10:21:00,46.0,39.5,29.53,ENE,59,5.0,5.0,78,0.00,,,0.00,343,Wunderground v.1.15,2013-01-25 09:21:00,
2013-01-25 10:31:00,46.9,39.7,29.53,NNE,30,5.0,5.0,76,0.00,,,0.00,360,Wunderground v.1.15,2013-01-25 09:31:00,
2013-01-25 10:36:00,47.4,39.9,29.53,NNE,17,5.0,5.0,75,0.00,,,0.00,367,Wunderground v.1.15,2013-01-25 09:36:00,
2013-01-25 10:46:00,48.3,39.7,29.53,ENE,59,5.0,7.0,72,0.00,,,0.00,381,Wunderground v.1.15,2013-01-25 09:46:00,
2013-01-25 10:56:00,49.1,40.1,29.53,North,360,4.0,6.0,71,0.00,,,0.00,397,Wunderground v.1.15,2013-01-25 09:56:00,
2013-01-25 11:01:00,49.5,39.7,29.53,North,5,6.0,7.0,69,0.00,,,0.00,401,Wunderground v.1.15,2013-01-25 10:01:00,
2013-01-25 11:06:00,49.7,39.6,29.53,NNW,333,8.0,15.0,68,0.00,,,0.00,411,Wunderground v.1.15,2013-01-25 10:06:00,
2013-01-25 11:16:00,50.3,39.4,29.53,NE,40,8.0,10.0,66,0.00,,,0.00,422,Wunderground v.1.15,2013-01-25 10:16:00,
2013-01-25 11:21:00,50.4,39.1,29.53,NNE,28,7.0,7.0,65,0.00,,,0.00,429,Wunderground v.1.15,2013-01-25 10:21:00,
2013-01-25 11:31:00,50.9,39.5,29.53,NNW,338,5.0,11.0,65,0.00,,,0.00,434,Wunderground v.1.15,2013-01-25 10:31:00,
2013-01-25 11:36:00,51.0,39.6,29.53,NNE,14,6.0,12.0,65,0.00,,,0.00,438,Wunderground v.1.15,2013-01-25 10:36:00,
2013-01-25 11:46:00,51.1,38.9,29.53,North,355,8.0,8.0,63,0.00,,,0.00,443,Wunderground v.1.15,2013-01-25 10:46:00,
2013-01-25 11:51:00,51.2,39.0,29.53,NW,323,7.0,11.0,63,0.00,,,0.00,445,Wunderground v.1.15,2013-01-25 10:51:00,
2013-01-25 12:01:00,51.7,39.5,29.53,NNW,336,8.0,17.0,63,0.00,,,0.00,450,Wunderground v.1.15,2013-01-25 11:01:00,
2013-01-25 12:06:00,51.6,39.4,29.53,North,360,8.0,17.0,63,0.00,,,0.00,450,Wunderground v.1.15,2013-01-25 11:06:00,
2013-01-25 12:16:00,51.4,38.8,29.53,NW,321,12.0,14.0,62,0.00,,,0.00,452,Wunderground v.1.15,2013-01-25 11:16:00,
2013-01-25 12:21:00,51.7,39.5,29.53,North,355,11.0,11.0,63,0.00,,,0.00,454,Wunderground v.1.15,2013-01-25 11:21:00,
2013-01-25 12:26:00,51.6,39.0,29.53,North,360,11.0,13.0,62,0.00,,,0.00,454,Wunderground v.1.15,2013-01-25 11:26:00,
2013-01-25 12:36:00,51.8,38.8,29.53,NNE,22,10.0,12.0,61,0.00,,,0.00,455,Wunderground v.1.15,2013-01-25 11:36:00,
2013-01-25 12:41:00,52.0,38.5,29.52,North,349,9.0,9.0,60,0.00,,,0.00,455,Wunderground v.1.15,2013-01-25 11:41:00,
2013-01-25 12:51:00,52.5,39.4,29.52,NNW,330,6.0,12.0,61,0.00,,,0.00,450,Wunderground v.1.15,2013-01-25 11:51:00,
2013-01-25 12:56:00,52.3,38.8,29.52,WNW,302,9.0,12.0,60,0.00,,,0.00,446,Wunderground v.1.15,2013-01-25 11:56:00,
2013-01-25 13:06:00,52.2,38.7,29.52,North,355,12.0,12.0,60,0.00,,,0.00,445,Wunderground v.1.15,2013-01-25 12:06:00,
2013-01-25 13:11:00,52.3,39.2,29.52,NNW,342,12.0,16.0,61,0.00,,,0.00,439,Wunderground v.1.15,2013-01-25 12:11:00,
2013-01-25 13:21:00,52.4,39.3,29.52,NW,320,13.0,13.0,61,0.00,,,0.00,431,Wunderground v.1.15,2013-01-25 12:21:00,
2013-01-25 13:26:00,52.7,39.6,29.51,NNW,327,12.0,13.0,61,0.00,,,0.00,424,Wunderground v.1.15,2013-01-25 12:26:00,
2013-01-25 13:36:00,52.4,38.9,29.51,NNW,343,12.0,14.0,60,0.00,,,0.00,420,Wunderground v.1.15,2013-01-25 12:36:00,
2013-01-25 13:41:00,52.7,39.6,29.51,North,355,11.0,14.0,61,0.00,,,0.00,413,Wunderground v.1.15,2013-01-25 12:41:00,
2013-01-25 13:51:00,52.5,38.6,29.51,NW,305,11.0,11.0,59,0.00,,,0.00,401,Wunderground v.1.15,2013-01-25 12:51:00,
2013-01-25 13:56:00,52.8,39.3,29.51,North,5,11.0,11.0,60,0.00,,,0.00,394,Wunderground v.1.15,2013-01-25 12:56:00,
2013-01-25 14:06:00,52.9,38.5,29.51,NNW,327,10.0,10.0,58,0.00,,,0.00,383,Wunderground v.1.15,2013-01-25 13:06:00,
2013-01-25 14:11:00,52.7,38.8,29.51,NNW,337,11.0,11.0,59,0.00,,,0.00,373,Wunderground v.1.15,2013-01-25 13:11:00,
2013-01-25 14:21:00,52.6,38.2,29.52,North,355,13.0,15.0,58,0.00,,,0.00,360,Wunderground v.1.15,2013-01-25 13:21:00,
2013-01-25 14:26:00,52.7,38.3,29.52,NW,306,12.0,15.0,58,0.00,,,0.00,350,Wunderground v.1.15,2013-01-25 13:26:00,
2013-01-25 14:36:00,52.5,38.1,29.52,NNE,12,13.0,13.0,58,0.00,,,0.00,332,Wunderground v.1.15,2013-01-25 13:36:00,
2013-01-25 14:41:00,52.6,38.2,29.52,NNW,327,12.0,12.0,58,0.00,,,0.00,325,Wunderground v.1.15,2013-01-25 13:41:00,
2013-01-25 14:46:00,52.7,38.3,29.52,North,5,11.0,12.0,58,0.00,,,0.00,316,Wunderground v.1.15,2013-01-25 13:46:00,
2013-01-25 14:56:00,52.3,38.0,29.52,North,5,12.0,12.0,58,0.00,,,0.00,297,Wunderground v.1.15,2013-01-25 13:56:00,
2013-01-25 15:01:00,52.3,38.4,29.52,NW,310,12.0,12.0,59,0.00,,,0.00,287,Wunderground v.1.15,2013-01-25 14:01:00,
2013-01-25 15:11:00,52.0,37.7,29.52,North,9,13.0,13.0,58,0.00,,,0.00,265,Wunderground v.1.15,2013-01-25 14:11:00,
2013-01-25 15:16:00,52.1,38.2,29.52,NNW,344,12.0,16.0,59,0.00,,,0.00,253,Wunderground v.1.15,2013-01-25 14:16:00,
2013-01-25 15:26:00,52.1,37.8,29.53,ENE,74,10.0,11.0,58,0.00,,,0.00,234,Wunderground v.1.15,2013-01-25 14:26:00,
2013-01-25 15:36:00,51.9,38.0,29.53,NNW,340,10.0,14.0,59,0.00,,,0.00,207,Wunderground v.1.15,2013-01-25 14:36:00,
2013-01-25 15:41:00,52.0,38.1,29.53,NW,325,9.0,9.0,59,0.00,,,0.00,193,Wunderground v.1.15,2013-01-25 14:41:00,
2013-01-25 15:51:00,52.0,38.1,29.53,NW,321,8.0,12.0,59,0.00,,,0.00,167,Wunderground v.1.15,2013-01-25 14:51:00,
2013-01-25 15:56:00,52.0,38.1,29.53,North,355,7.0,12.0,59,0.00,,,0.00,151,Wunderground v.1.15,2013-01-25 14:56:00,
2013-01-25 16:06:00,51.8,37.5,29.53,NNW,331,9.0,12.0,58,0.00,,,0.00,121,Wunderground v.1.15,2013-01-25 15:06:00,
2013-01-25 16:11:00,51.7,37.4,29.53,North,360,8.0,9.0,58,0.00,,,0.00,109,Wunderground v.1.15,2013-01-25 15:11:00,
2013-01-25 16:21:00,51.4,37.1,29.54,North,355,11.0,14.0,58,0.00,,,0.00,84,Wunderground v.1.15,2013-01-25 15:21:00,
2013-01-25 16:26:00,51.4,37.1,29.54,NNW,346,12.0,18.0,58,0.00,,,0.00,70,Wunderground v.1.15,2013-01-25 15:26:00,
2013-01-25 16:36:00,51.1,36.8,29.55,NW,320,10.0,12.0,58,0.00,,,0.00,47,Wunderground v.1.15,2013-01-25 15:36:00,
2013-01-25 16:41:00,51.0,36.7,29.54,NNW,338,10.0,10.0,58,0.00,,,0.00,37,Wunderground v.1.15,2013-01-25 15:41:00,
2013-01-25 16:51:00,50.7,36.5,29.55,NNE,30,9.0,11.0,58,0.00,,,0.00,21,Wunderground v.1.15,2013-01-25 15:51:00,
2013-01-25 16:56:00,50.6,36.8,29.55,North,5,9.0,12.0,59,0.00,,,0.00,14,Wunderground v.1.15,2013-01-25 15:56:00,
2013-01-25 17:06:00,50.1,36.3,29.55,NE,50,9.0,11.0,59,0.00,,,0.00,9,Wunderground v.1.15,2013-01-25 16:06:00,
2013-01-25 17:11:00,50.0,36.2,29.56,North,5,9.0,15.0,59,0.00,,,0.00,7,Wunderground v.1.15,2013-01-25 16:11:00,
2013-01-25 17:21:00,49.6,36.3,29.56,North,355,9.0,9.0,60,0.00,,,0.00,0,Wunderground v.1.15,2013-01-25 16:21:00,
2013-01-25 17:31:00,49.2,36.3,29.56,NNW,346,9.0,12.0,61,0.00,,,0.00,0,Wunderground v.1.15,2013-01-25 16:31:00,
2013-01-25 17:36:00,49.0,36.5,29.57,North,355,9.0,12.0,62,0.00,,,0.00,0,Wunderground v.1.15,2013-01-25 16:36:00,
2013-01-25 17:41:00,48.7,36.3,29.57,North,355,8.0,8.0,62,0.00,,,0.00,0,Wunderground v.1.15,2013-01-25 16:41:00,
2013-01-25 17:51:00,48.3,36.3,29.57,NW,316,9.0,13.0,63,0.00,,,0.00,0,Wunderground v.1.15,2013-01-25 16:51:00,
2013-01-25 18:01:00,48.0,36.4,29.57,North,11,9.0,9.0,64,0.00,,,0.00,0,Wunderground v.1.15,2013-01-25 17:01:00,
2013-01-25 18:11:00,47.7,36.1,29.58,NNW,344,6.0,7.0,64,0.00,,,0.00,0,Wunderground v.1.15,2013-01-25 17:11:00,
2013-01-25 18:16:00,47.6,36.0,29.58,NNW,329,7.0,7.0,64,0.00,,,0.00,0,Wunderground v.1.15,2013-01-25 17:16:00,
2013-01-25 18:21:00,47.4,35.8,29.58,North,355,6.0,6.0,64,0.00,,,0.00,0,Wunderground v.1.15,2013-01-25 17:21:00,
2013-01-25 18:31:00,47.1,35.5,29.58,North,351,6.0,7.0,64,0.00,,,0.00,0,Wunderground v.1.15,2013-01-25 17:31:00,
2013-01-25 18:36:00,47.0,35.8,29.58,NNW,346,6.0,7.0,65,0.00,,,0.00,0,Wunderground v.1.15,2013-01-25 17:36:00,
2013-01-25 18:46:00,46.9,35.7,29.58,North,5,6.0,6.0,65,0.00,,,0.00,0,Wunderground v.1.15,2013-01-25 17:46:00,
2013-01-25 18:56:00,46.7,35.6,29.58,North,9,5.0,6.0,65,0.00,,,0.00,0,Wunderground v.1.15,2013-01-25 17:56:00,
2013-01-25 19:01:00,46.6,35.5,29.58,NNW,346,4.0,4.0,65,0.00,,,0.00,0,Wunderground v.1.15,2013-01-25 18:01:00,
2013-01-25 19:11:00,46.5,35.4,29.58,NNW,345,5.0,5.0,65,0.00,,,0.00,0,Wunderground v.1.15,2013-01-25 18:11:00,
2013-01-25 19:16:00,46.5,35.0,29.58,North,9,5.0,5.0,64,0.00,,,0.00,0,Wunderground v.1.15,2013-01-25 18:16:00,
2013-01-25 19:21:00,46.4,34.9,29.59,North,5,6.0,12.0,64,0.00,,,0.00,0,Wunderground v.1.15,2013-01-25 18:21:00,
2013-01-25 19:31:00,46.4,34.5,29.59,NNE,29,8.0,8.0,63,0.00,,,0.00,0,Wunderground v.1.15,2013-01-25 18:31:00,
2013-01-25 19:36:00,46.3,34.4,29.59,NNE,14,7.0,8.0,63,0.00,,,0.00,0,Wunderground v.1.15,2013-01-25 18:36:00,
2013-01-25 19:46:00,46.1,34.2,29.60,North,360,6.0,8.0,63,0.00,,,0.00,0,Wunderground v.1.15,2013-01-25 18:46:00,
2013-01-25 19:51:00,46.1,34.2,29.60,NNW,338,6.0,10.0,63,0.00,,,0.00,0,Wunderground v.1.15,2013-01-25 18:51:00,
2013-01-25 20:01:00,45.9,34.0,29.60,NNE,14,7.0,7.0,63,0.00,,,0.00,0,Wunderground v.1.15,2013-01-25 19:01:00,
2013-01-25 20:06:00,45.8,33.9,29.60,NNW,329,6.0,7.0,63,0.00,,,0.00,0,Wunderground v.1.15,2013-01-25 19:06:00,
2013-01-25 20:11:00,45.7,33.8,29.60,NNE,22,6.0,9.0,63,0.00,,,0.00,0,Wunderground v.1.15,2013-01-25 19:11:00,
2013-01-25 20:21:00,45.5,33.6,29.60,WNW,287,6.0,6.0,63,0.00,,,0.00,0,Wunderground v.1.15,2013-01-25 19:21:00,
2013-01-25 20:26:00,45.4,33.5,29.61,NNE,32,6.0,7.0,63,0.00,,,0.00,0,Wunderground v.1.15,2013-01-25 19:26:00,
2013-01-25 20:31:00,45.5,33.6,29.61,NNW,329,7.0,7.0,63,0.00,,,0.00,0,Wunderground v.1.15,2013-01-25 19:31:00,
2013-01-25 20:41:00,45.3,33.4,29.61,NNE,15,6.0,6.0,63,0.00,,,0.00,0,Wunderground v.1.15,2013-01-25 19:41:00,
2013-01-25 20:51:00,45.2,33.7,29.62,NE,46,5.0,6.0,64,0.00,,,0.00,0,Wunderground v.1.15,2013-01-25 19:51:00,
2013-01-25 20:56:00,45.0,33.5,29.62,East,80,5.0,6.0,64,0.00,,,0.00,0,Wunderground v.1.15,2013-01-25 19:56:00,
2013-01-25 21:06:00,44.9,33.5,29.62,NNE,21,5.0,7.0,64,0.00,,,0.00,0,Wunderground v.1.15,2013-01-25 20:06:00,
2013-01-25 21:16:00,44.8,33.4,29.62,NNW,327,6.0,6.0,64,0.00,,,0.00,0,Wunderground v.1.15,2013-01-25 20:16:00,
2013-01-25 21:21:00,44.8,33.7,29.62,North,5,6.0,6.0,65,0.00,,,0.00,0,Wunderground v.1.15,2013-01-25 20:21:00,
2013-01-25 21:31:00,44.6,33.6,29.62,NE,44,5.0,5.0,65,0.00,,,0.00,0,Wunderground v.1.15,2013-01-25 20:31:00,
2013-01-25 21:36:00,44.5,33.5,29.62,NNE,15,5.0,5.0,65,0.00,,,0.00,0,Wunderground v.1.15,2013-01-25 20:36:00,
2013-01-25 21:41:00,44.6,33.6,29.62,NNW,329,6.0,6.0,65,0.00,,,0.00,0,Wunderground v.1.15,2013-01-25 20:41:00,
2013-01-25 21:51:00,44.6,33.2,29.62,NE,35,6.0,6.0,64,0.00,,,0.00,0,Wunderground v.1.15,2013-01-25 20:51:00,
2013-01-25 22:01:00,44.6,33.2,29.62,NNE,19,8.0,8.0,64,0.00,,,0.00,0,Wunderground v.1.15,2013-01-25 21:01:00,
2013-01-25 22:06:00,44.7,33.3,29.62,East,89,8.0,11.0,64,0.00,,,0.00,0,Wunderground v.1.15,2013-01-25 21:06:00,
2013-01-25 22:11:00,44.8,33.4,29.62,NNE,22,8.0,8.0,64,0.00,,,0.00,0,Wunderground v.1.15,2013-01-25 21:11:00,
2013-01-25 22:21:00,44.6,33.2,29.62,NE,38,6.0,6.0,64,0.00,,,0.00,0,Wunderground v.1.15,2013-01-25 21:21:00,
2013-01-25 22:31:00,44.4,33.0,29.63,NNW,335,5.0,5.0,64,0.00,,,0.00,0,Wunderground v.1.15,2013-01-25 21:31:00,
2013-01-25 22:41:00,44.0,33.0,29.63,NE,40,3.0,4.0,65,0.00,,,0.00,0,Wunderground v.1.15,2013-01-25 21:41:00,
2013-01-25 22:46:00,43.9,33.3,29.63,NNE,17,4.0,4.0,66,0.00,,,0.00,0,Wunderground v.1.15,2013-01-25 21:46:00,
2013-01-25 22:51:00,43.8,33.2,29.63,NNW,329,4.0,5.0,66,0.00,,,0.00,0,Wunderground v.1.15,2013-01-25 21:51:00,
2013-01-25 23:01:00,43.8,33.2,29.63,NE,45,4.0,4.0,66,0.00,,,0.00,0,Wunderground v.1.15,2013-01-25 22:01:00,
2013-01-25 23:06:00,43.8,33.2,29.63,NNE,20,5.0,7.0,66,0.00,,,0.00,0,Wunderground v.1.15,2013-01-25 22:06:00,
2013-01-25 23:16:00,43.8,33.2,29.64,NNE,25,5.0,11.0,66,0.00,,,0.00,0,Wunderground v.1.15,2013-01-25 22:16:00,
2013-01-25 23:26:00,43.7,33.5,29.64,North,5,5.0,5.0,67,0.00,,,0.00,0,Wunderground v.1.15,2013-01-25 22:26:00,
2013-01-25 23:31:00,43.6,33.4,29.64,NNW,347,5.0,5.0,67,0.00,,,0.00,0,Wunderground v.1.15,2013-01-25 22:31:00,
2013-01-25 23:41:00,43.5,33.3,29.64,NNE,24,5.0,11.0,67,0.00,,,0.00,0,Wunderground v.1.15,2013-01-25 22:41:00,
2013-01-25 23:51:00,43.7,33.5,29.64,NNE,33,7.0,7.0,67,0.00,,,0.00,0,Wunderground v.1.15,2013-01-25 22:51:00,
2013-01-25 23:56:00,43.6,33.4,29.64,NE,44,6.0,7.0,67,0.00,,,0.00,0,Wunderground v.1.15,2013-01-25 22:56:00,